Regional Weather Roundup
Issued by NWS

Current Version | Previous Version | Text Only | Print | Product List | Glossary On
Versions: 1 2 3 4 5 6 7 8 9 10 11 12 13 14 15 16 17 18 19 20 21 22 23 24 25 26 27 28 29 30 31 32 33 34 35 36 37 38 39 40 41 42 43 44 45 46 47 48 49 50
000
ASHW40 PHFO 280443
RWRHI

WEATHER ROUNDUP FOR HAWAII
NATIONAL WEATHER SERVICE HONOLULU HI
600 PM HST WED MAY 27 2015

THIS IS AN AUTOMATED REPORT THAT HAS NOT BEEN QUALITY CONTROLLED.

NOTE..."FAIR" INDICATES FEW OR NO CLOUDS BELOW 12,000 FEET WITH NO
SIGNIFICANT WEATHER AND/OR OBSTRUCTIONS TO VISIBILITY.

* - THESE SITES REPORT LIMITED FIELDS

HIZ001>004-280500-
KAUAI-NIIHAU-

CITY           SKY/WX    TMP DP  RH WIND       PRES   REMARKS
LIHUE APT      LGT SNOW N/A N/A N/A NE15      29.96R
PORT ALLEN*    NOT AVBL
POIPU*           N/A     72 N/A N/A W3          N/A
PRINCEVILLE*     N/A     73 N/A N/A MISG        N/A
KOKOLE POINT*  NOT AVBL
MOLOAA DAIRY*  NOT AVBL
WAIMEA HTS*      N/A     72  63  73 E3G10       N/A
PUU OPAE*        N/A     64  63  94 N6          N/A
PUU LUA*       NOT AVBL
MAKAHA RIDGE*    N/A     66  61  82 N1G8        N/A
$$

HIZ005>011-280500-
OAHU-

CITY           SKY/WX    TMP DP  RH WIND       PRES   REMARKS
HONOLULU       PTSUNNY   79  66  64 SW8       29.91R
KALAELOA       MOSUNNY   78  64  61 SW7       29.93R
KANEOHE MCB    CLOUDY    73  68  84 CALM      29.92R
WHEELER FIELD  NOT AVBL
BELLOWS*         N/A    N/A N/A N/A NE12        N/A
KAHUKU*          N/A    N/A N/A N/A NE3         N/A
WHEELER*       NOT AVBL
WAIANAE HARBOR NOT AVBL
DILLINGHAM*      N/A     82  64  54 MISG        N/A
KAHUKU TRN*      N/A     72  64  78 E3G12       N/A
KAWAILOA*        N/A     70  63  78 NE6G14      N/A
KII*             N/A     75  66  73 NE8         N/A
MAKUA RANGE*     N/A     79  63  57 NE10G17     N/A
OAHU FOREST NW   N/A    N/A N/A N/A CALM        N/A
SCHOFIELD BRK*   N/A     73  64  73 MISG        N/A
SCHOFIELD S*   NOT AVBL
WAIANAE VLY*     N/A     81  72  74 MISG        N/A
KUAOKALA*        N/A     72  64  78 N12G24      N/A
HONOULIUULI*   NOT AVBL
MOKUOLOE IS*     N/A    N/A N/A N/A MISG        N/A
PALEHUA*         N/A     66  59  77 SE3         N/A
WAIAWA PHB*    NOT AVBL
$$

HIZ012>013-280500-
MOLOKAI-

CITY           SKY/WX    TMP DP  RH WIND       PRES   REMARKS
MOLOKAI AIRPT  PTSUNNY   75  65  70 N10       29.93R
KALAUPAPA      NOT AVBL
MAKAPULAPAI*     N/A     75  66  73 E10         N/A
MOLOKAI 1*       N/A     73  70  88 N5          N/A
PUU ALII*        N/A     59  59 100 CALM        N/A
$$

HIZ016-280500-
KAHOOLAWE-

CITY           SKY/WX    TMP DP  RH WIND       PRES   REMARKS
KAHOOLAWE*       N/A     70 N/A N/A E9G15       N/A
HAKIOAWA*        N/A     72  68  87 MISG      30.35S
HONOKANAIA*      N/A     79  68  69 N6G18     29.93R
KANELOA*         N/A     73  66  78 E12G18    29.98S
KEALIALALO*      N/A     73  66  78 E8G18     29.93
LUA MAKIKA*    NOT AVBL
$$

HIZ014>015-280500-
LANAI-

CITY           SKY/WX    TMP DP  RH WIND       PRES   REMARKS
LANAI CITY     CLOUDY    72  64  76 E6        29.97R
LANAI 1*         N/A     72  64  78 E12G17      N/A
$$

HIZ017>028-280500-
MAUI-

CITY           SKY/WX    TMP DP  RH WIND       PRES   REMARKS
KAHULUI        PTSUNNY   76  67  73 N9        29.93R
KAPALUA-W MAUI PTSUNNY   75  64  69 NE14      29.92R
HANA AIRPORT   CLOUDY    70  68  94 S3        29.97S
HANA*            N/A     72 N/A N/A S3          N/A
HALEAKALA SUMM   N/A     45  45 100 S13G26      N/A
MAALAEA BAY*   NOT AVBL
HALEAKALA*     NOT AVBL
KAUPO GAP*       N/A     63  63 100 CALM        N/A
KULA 1*          N/A     57  56  96 SW5G18      N/A
$$

HIZ023>026-280500-
BIG ISLAND OF HAWAII COAST AND LOWER SLOPES-

CITY           SKY/WX    TMP DP  RH WIND       PRES   REMARKS
KAILUA KONA    CLOUDY    80  69  69 NW10      29.89S
HILO           LGT RAIN N/A N/A N/A NW6       29.93R
HONOKAA*       NOT AVBL
KAWAIHAE MWT*    N/A     84 N/A N/A S8          N/A
KAWAIHAE*        N/A     79 N/A N/A S7          N/A
SOUTH POINT*     N/A     73 N/A N/A E6          N/A
UPOLU AIRPORT*   N/A    N/A N/A N/A E12G17      N/A
KAMUELA*       CLOUDY    68  61  77 CALM      30.03R
HAKALAU*         N/A     56  56 100 SE3         N/A
KALOKO-HONOKO*   N/A     75  66  73 SE7       29.89R
PALI 2*          N/A     64  64 100 SE3         N/A
KEALAKOMO*       N/A     75  66  73 E5          N/A
KAUPULEHU*       N/A    N/A N/A N/A SW3G9       N/A
KAPAPALA*        N/A     67  65  93 NW3G9       N/A
LOWER KAHUKU*    N/A     64  61  88 SE1         N/A
PUHE CS*         N/A     81  68  65 S5G10       N/A
PUHO CS*         N/A     73  69  86 S2          N/A
PTA KEAMUKU*     N/A     63  59  88 CALM        N/A
WAIKOLOA*        N/A    N/A N/A N/A W7G13       N/A
$$

HIZ027>028-280500-
BIG ISLAND OF HAWAII INTERIOR AND SUMMMITS-

CITY           SKY/WX    TMP DP  RH WIND       PRES   REMARKS
BRADSHAW FIELD NOT AVBL
MK VISITOR CEN NOT AVBL
MAUNA KEA*       N/A     39  14  35 NW41        N/A  WCI  26
MAUNA LOA*       N/A     48  43  81 MISG        N/A
MAUNA LOA 1*   NOT AVBL
PTA KIPUKA*      N/A     57  57 100 N3          N/A
PTA RANGE 17*    N/A     57  55  94 NW5         N/A
PTA WEST*        N/A     61  59  94 N5          N/A
NENE CABIN*      N/A     55 N/A N/A SE3G9       N/A
AHUMOA*          N/A     54  54 100 N5          N/A
PTA PORTABLE*  NOT AVBL
PUU MALI*        N/A     54  54 100 NW3         N/A
$$

HIC003-280500-
NORTHWEST ISLANDS-

CITY           SKY/WX    TMP DP  RH WIND       PRES   REMARKS
MIDWAY ISLAND  SUNNY    N/A N/A N/A NW9       30.14S
MIDWAY NOS*    NOT AVBL
FRENCH FRIGATE NOT AVBL
$$

PHZ110>124-180-280500-
BUOY REPORTS

STATION/POSITION TIME  TEMP    WIND        PRES    WAVE   SWELL
                       AIR SEA DIR/SP/G            HT/PER HT/DIR
                 (UTC) (F)     (DEG/KT/KT) (MB)    (FT/S) (FT/D)
BUOY 51001       NOT AVBL
BUOY 51101       0400   72 74   30/ 12/ 14 1015.3F   5/ 8   5/ 30
BUOY 51100       NOT AVBL
BUOY 51002       0400   80 83  300/  4/  6 1012.4R   4/12   3/180
BUOY 51003       0400   74 79   30/ 14/ 16 1012.7S   5/11   3
BUOY 51004       0341   78 79  120/ 10/ 12 1012.5R   5/ 9   5/ 80
BARBERS PT BUOY  NOT AVBL
WAIMEA BAY BUOY  0400      77                N/A     5/ 8
KAILUA BAY BUOY  0400      78                N/A     4/13   2/360
LANAI BUOY       NOT AVBL
BARBERS PT 2     0400      77                N/A     3/13   2/170
PAUWELA MAUI     0400      77                N/A     4/ 9   2/340
HILO             0400      77                N/A     4/ 8   2/ 10
KANEOHE BAY BUOY 0400      77                N/A     4/ 8   2/340
HANALEI KAUAI    0400      78                N/A     5/ 8   2/320
KAHULUI HARBOR   0400   75 79   50/  6/  9 1013.2R
HONOLULU HARBOR  0400   76 77   30/  3/  9 1013.2R
KILO NALU        NOT AVBL
HILO HARBOR      0400   71 76  320/  6/  7 1012.9R
MOKUOLOE         0400   73 78  100/  4/  5 1013.4S
NAWILIWILI       0400   72 78   20/ 11/ 14 1014.2R
WHOTS BUOY       NOT AVBL
BUOY 51028       NOT AVBL
$$

......................KEY........................................
  SKY/WX - SKY CONDITIONS/PRESENT WEATHER
  TMP    - TEMPERATURE IN FAHRENHEIT
  DWPT   - DEWPOINT IN FAHRENHEIT
  RH     - RELATIVE HUMIDITY IN PERCENT
  WIND   - DIRECTION AND SPEED /MPH FOR ISLANDS...KTS FOR BUOYS/
  PRES   - MEAN SEA LEVEL PRESSURE IN INCHES OF HG
  VSB    - VISIBILITY IN MILES
  HX     - HEAT INDEX
  WCI    - WIND CHILL INDEX
  VRB    - VARIABLE WIND DIRECTION
  N/A    - NOT AVAILABLE



USA.gov is the U.S. government's official web portal to all federal, state and local government web resources and services.